Ionia, MI

11:43 PM EST on November 21, 2019 (GMT -0500)
Ionia

Weather History for KY70 - September, 2019

Change the Weather History Date:

Sunday, September 1, 2019

  Actual Average (KGRR) Record (KGRR)
Temperature  
Mean Temperature 62 °F -  
Max Temperature 68 °F 78 °F 97 °F (1953)
Min Temperature 56 °F 56 °F 40 °F (1896)
Degree Days  
Heating Degree Days 3    
Growing Degree Days 12 (Base 50)    
Moisture  
Dew Point 56 °F    
Average Humidity 78    
Maximum Humidity 93    
Minimum Humidity 63    
Precipitation  
Precipitation 0.14 in - - ()
Sea Level Pressure  
Sea Level Pressure 30.17 in    
Wind  
Wind Speed 4 mph ()    
Max Wind Speed 10 mph    
Max Gust Speed -    
Visibility 10.0 miles    
Events Rain    
Averages and records for this station are not official NWS values.
T = Trace of Precipitation, MM = Missing Value Source: Averaged Metar Reports

Daily Weather History Graph

Daily Weather History Graph

Search for Another Location

Airport or City:

Astronomy

Sep. 01, 2019 Rise Set
Actual Time 7:04 AM EDT 8:15 PM EDT
Civil Twilight 6:35 AM EDT 8:44 PM EDT
Nautical Twilight 6:00 AM EDT 9:19 PM EDT
Astronomical Twilight 5:23 AM EDT 9:55 PM EDT
Moon 9:36 AM EDT (9/1) 9:58 PM EDT (9/1)
Length of Visible Light 14h 09m
Length of Day
13h 10m
Waxing Crescent, 8% of the Moon is Illuminated
Sep 1
Waxing Crescent
Sep 5
First Quarter
Sep 14
Full
Sep 21
Last Quarter
Sep 28
New

Hourly Weather History & Observations

Time (EDT) Temp. Dew Point Humidity Pressure Visibility Wind Dir Wind Speed Gust Speed Precip Events Conditions
12:15 AM 60.3 °F 53.8 °F 79% 30.27 in 10.0 mi ENE 5.8 mph - N/A   Clear
12:20 AM 60.4 °F 53.8 °F 79% 30.27 in 10.0 mi ENE 5.8 mph - N/A   Clear
12:38 AM 61.0 °F 53.6 °F 77% 30.27 in 10.0 mi ENE 4.6 mph - N/A   Scattered Clouds
12:56 AM 61.0 °F 53.2 °F 76% 30.27 in 10.0 mi East 5.8 mph - N/A   Scattered Clouds
1:15 AM 60.8 °F 52.7 °F 75% 30.27 in 10.0 mi ENE 3.5 mph - N/A   Scattered Clouds
1:35 AM 60.3 °F 52.9 °F 77% 30.27 in 10.0 mi East 5.8 mph - N/A   Scattered Clouds
1:36 AM 60.3 °F 52.9 °F 77% 30.27 in 10.0 mi East 5.8 mph - N/A   Scattered Clouds
1:59 AM 60.4 °F 51.8 °F 73% 30.27 in 10.0 mi ENE 4.6 mph - N/A   Mostly Cloudy
2:17 AM 60.6 °F 50.4 °F 69% 30.27 in 10.0 mi ENE 4.6 mph - N/A   Overcast
2:35 AM 60.8 °F 49.6 °F 67% 30.27 in 10.0 mi NE 5.8 mph - N/A   Overcast
2:55 AM 60.1 °F 50.0 °F 69% 30.27 in 10.0 mi ENE 4.6 mph - N/A   Overcast
3:15 AM 59.7 °F 50.4 °F 71% 30.27 in 10.0 mi East 3.5 mph - N/A Rain Light Rain
3:37 AM 58.5 °F 52.0 °F 79% 30.27 in 10.0 mi Calm Calm - N/A Rain Light Rain
3:56 AM 57.7 °F 53.8 °F 87% 30.26 in 10.0 mi East 3.5 mph - 0.01 in Rain Light Rain
4:15 AM 57.6 °F 53.4 °F 86% 30.27 in 10.0 mi SE 5.8 mph - 0.01 in Rain Light Rain
4:35 AM 58.1 °F 54.3 °F 87% 30.26 in 10.0 mi SE 5.8 mph - 0.03 in Rain Light Rain
4:59 AM 56.8 °F 53.4 °F 88% 30.25 in 10.0 mi ESE 4.6 mph - 0.06 in Rain Rain
5:17 AM 56.3 °F 53.6 °F 91% 30.24 in 10.0 mi East 5.8 mph - 0.03 in Rain Rain
5:35 AM 56.7 °F 54.1 °F 91% 30.24 in 10.0 mi East 4.6 mph - 0.04 in Rain Light Rain
5:55 AM 56.7 °F 54.5 °F 92% 30.24 in 10.0 mi Calm Calm - 0.05 in Rain Rain
5:56 AM 56.7 °F 54.5 °F 92% 30.24 in 10.0 mi Calm Calm - 0.05 in Rain Rain
6:15 AM 56.7 °F 54.5 °F 92% 30.23 in 10.0 mi Calm Calm - N/A Rain Light Rain
6:20 AM 56.7 °F 54.7 °F 93% 30.23 in 10.0 mi ESE 3.5 mph - N/A Rain Light Rain
6:38 AM 57.2 °F 55.2 °F 93% 30.23 in 10.0 mi SE 3.5 mph - 0.01 in Rain Light Rain
6:56 AM 57.0 °F 55.0 °F 93% 30.22 in 10.0 mi ESE 5.8 mph - 0.02 in Rain Light Rain
7:15 AM 57.2 °F 54.5 °F 91% 30.22 in 10.0 mi East 4.6 mph - N/A   Light Drizzle
7:16 AM 57.2 °F 54.3 °F 90% 30.22 in 10.0 mi East 4.6 mph - N/A   Light Drizzle
7:35 AM 56.8 °F 54.1 °F 91% 30.22 in 10.0 mi Calm Calm - N/A   Overcast
7:58 AM 57.2 °F 54.0 °F 89% 30.22 in 10.0 mi East 3.5 mph - N/A   Overcast
8:16 AM 57.2 °F 54.1 °F 89% 30.22 in 10.0 mi North - - N/A   Overcast
8:35 AM 57.4 °F 54.5 °F 90% 30.21 in 10.0 mi ENE 4.6 mph - N/A   Overcast
8:55 AM 57.7 °F 54.5 °F 89% 30.21 in 10.0 mi East 4.6 mph - N/A   Overcast
8:56 AM 57.7 °F 54.5 °F 89% 30.21 in 10.0 mi East 5.8 mph - N/A   Overcast
9:19 AM 58.3 °F 54.0 °F 86% 30.21 in 10.0 mi East 3.5 mph - N/A   Overcast
9:37 AM 59.0 °F 54.3 °F 84% 30.20 in 10.0 mi ENE 3.5 mph - N/A   Overcast
9:55 AM 59.7 °F 53.2 °F 79% 30.21 in 10.0 mi Calm Calm - N/A   Overcast
9:56 AM 59.9 °F 53.1 °F 78% 30.21 in 10.0 mi East 3.5 mph - N/A   Overcast
10:15 AM 60.1 °F 51.8 °F 74% 30.21 in 10.0 mi East 4.6 mph - N/A   Overcast
10:16 AM 60.1 °F 51.8 °F 74% 30.21 in 10.0 mi East 3.5 mph - N/A   Overcast
10:35 AM 61.2 °F 52.2 °F 72% 30.21 in 10.0 mi East 3.5 mph - N/A   Overcast
10:40 AM 61.7 °F 52.9 °F 73% 30.21 in 10.0 mi ENE 5.8 mph - N/A   Overcast
10:58 AM 62.2 °F 53.2 °F 72% 30.21 in 10.0 mi East 4.6 mph - N/A   Overcast
11:16 AM 62.6 °F 52.5 °F 70% 30.21 in 10.0 mi East 4.6 mph - N/A   Overcast
11:35 AM 63.3 °F 53.4 °F 70% 30.20 in 10.0 mi ENE 4.6 mph - N/A   Overcast
11:55 AM 63.5 °F 52.7 °F 68% 30.20 in 10.0 mi East 5.8 mph - N/A   Overcast
12:19 PM 64.6 °F 54.1 °F 69% 30.19 in 10.0 mi East 6.9 mph - N/A   Overcast
12:37 PM 64.4 °F 54.0 °F 69% 30.18 in 10.0 mi East 9.2 mph - N/A   Overcast
12:56 PM 64.8 °F 54.7 °F 70% 30.17 in 10.0 mi East 8.1 mph - N/A   Overcast
1:15 PM 65.8 °F 54.3 °F 66% 30.17 in 10.0 mi East 6.9 mph - N/A   Overcast
1:35 PM 66.7 °F 55.2 °F 66% 30.16 in 10.0 mi ESE 10.4 mph - N/A   Overcast
1:58 PM 67.1 °F 55.9 °F 67% 30.15 in 10.0 mi East 5.8 mph - N/A   Overcast
2:16 PM 67.3 °F 55.8 °F 66% 30.15 in 10.0 mi ESE 4.6 mph - N/A   Overcast
2:35 PM 67.3 °F 56.7 °F 69% 30.15 in 10.0 mi East 6.9 mph - N/A   Overcast
2:36 PM 67.3 °F 57.0 °F 70% 30.15 in 10.0 mi East 5.8 mph - N/A   Overcast
2:55 PM 68.2 °F 57.2 °F 68% 30.14 in 10.0 mi East 4.6 mph - N/A   Overcast
3:19 PM 68.9 °F 56.7 °F 65% 30.13 in 10.0 mi Calm Calm - N/A   Overcast
3:36 PM 68.9 °F 56.3 °F 64% 30.13 in 10.0 mi Calm Calm - N/A   Overcast
3:55 PM 68.9 °F 56.1 °F 64% 30.12 in 10.0 mi South 5.8 mph - N/A   Overcast
3:56 PM 68.9 °F 55.9 °F 63% 30.12 in 10.0 mi South 4.6 mph - N/A   Overcast
4:15 PM 68.9 °F 56.3 °F 64% 30.12 in 10.0 mi South 4.6 mph - N/A   Overcast
4:16 PM 68.9 °F 56.3 °F 64% 30.11 in 10.0 mi SSE 3.5 mph - N/A   Overcast
4:35 PM 68.4 °F 56.7 °F 66% 30.11 in 10.0 mi Calm Calm - N/A   Overcast
4:40 PM 68.5 °F 56.8 °F 66% 30.11 in 10.0 mi Calm Calm - N/A   Overcast
4:58 PM 68.4 °F 57.6 °F 68% 30.11 in 10.0 mi Calm Calm - N/A   Overcast
5:15 PM 68.2 °F 57.0 °F 67% 30.10 in 10.0 mi Calm Calm - N/A   Overcast
5:35 PM 68.2 °F 57.4 °F 68% 30.09 in 10.0 mi Calm Calm - N/A   Overcast
5:55 PM 68.2 °F 58.1 °F 70% 30.09 in 10.0 mi Calm Calm - N/A   Overcast
6:19 PM 68.0 °F 58.8 °F 72% 30.09 in 10.0 mi Calm Calm - N/A   Overcast
6:37 PM 67.6 °F 59.4 °F 75% 30.08 in 10.0 mi Calm Calm - N/A   Overcast
6:55 PM 67.3 °F 59.7 °F 77% 30.08 in 10.0 mi Calm Calm - N/A   Overcast
6:56 PM 67.3 °F 59.7 °F 77% 30.08 in 10.0 mi Calm Calm - N/A   Overcast
7:15 PM 67.1 °F 59.4 °F 76% 30.07 in 10.0 mi NNE 3.5 mph - N/A   Overcast
7:35 PM 66.6 °F 59.5 °F 78% 30.07 in 10.0 mi NNE 3.5 mph - N/A   Overcast
7:40 PM 66.4 °F 59.5 °F 79% 30.07 in 10.0 mi NNE 3.5 mph - N/A   Overcast
7:58 PM 66.0 °F 59.4 °F 79% 30.07 in 10.0 mi NNE 3.5 mph - N/A   Overcast
8:16 PM 65.7 °F 59.0 °F 79% 30.07 in 10.0 mi NNE 3.5 mph - N/A   Overcast
8:35 PM 65.3 °F 59.9 °F 83% 30.06 in 10.0 mi Calm Calm - N/A   Overcast
8:55 PM 64.8 °F 60.3 °F 85% 30.07 in 10.0 mi Calm Calm - N/A   Overcast
9:19 PM 64.8 °F 59.9 °F 84% 30.07 in 10.0 mi North 3.5 mph - N/A   Overcast
9:37 PM 64.4 °F 60.4 °F 87% 30.07 in 10.0 mi Calm Calm - N/A   Overcast
9:55 PM 64.4 °F 60.6 °F 88% 30.07 in 10.0 mi Calm Calm - N/A   Overcast
9:56 PM 64.4 °F 60.8 °F 88% 30.07 in 10.0 mi Calm Calm - N/A   Overcast
10:15 PM 64.4 °F 60.3 °F 86% 30.07 in 10.0 mi Calm Calm - N/A   Overcast
10:35 PM 64.4 °F 60.1 °F 86% 30.07 in 10.0 mi Calm Calm - N/A   Overcast
10:58 PM 64.0 °F 60.3 °F 87% 30.07 in 10.0 mi Calm Calm - N/A Rain Light Rain
11:16 PM 64.0 °F 60.8 °F 89% 30.07 in 10.0 mi Calm Calm - N/A   Overcast
11:35 PM 63.5 °F 60.8 °F 91% 30.06 in 10.0 mi Calm Calm - N/A   Overcast
11:36 PM 63.5 °F 60.8 °F 91% 30.06 in 10.0 mi Calm Calm - N/A   Overcast
11:55 PM 63.7 °F 60.8 °F 90% 30.06 in 10.0 mi Calm Calm - N/A   Overcast